Home   Weather   Canvey Island   Past weeks

Flag for United Kingdom Past Weather in Canvey Island, England, United Kingdom — Yesterday and Last 2 Weeks

Now
32 °F

Clear.


Feels Like: 29 °F
Forecast: N/A
Wind: 3 mph from North

Location: Southend Airport-On-Sea

Current Time: Jan 19, 2017 at 11:41:02 pm

Latest Report: Jan 19, 2017 at 10:50 pm


Visibility: 10 mi

Pressure: 30.60 "Hg

Humidity: 87%

Dew Point: 28 °F

Location of Canvey IslandLocation

Past Weather in Canvey Island — Graph

°F

Canvey Island Temperature Yesterday

Maximum temperature yesterday: 41 °F (at 1:20 pm)
Minimum temperature yesterday: 23 °F (at 3:50 am)
Average temperature yesterday: 31 °F

High & Low Weather Summary for the Past Weeks

 TemperatureHumidityPressure
High54 °F (Jan 11, 11:20 am)100% (Jan 19, 5:20 am)30.69 "Hg (Jan 19, 5:20 am)
Low23 °F (Jan 18, 3:50 am)50% (Jan 11, 5:50 pm)29.27 "Hg (Jan 12, 6:20 pm)
Average39 °F82%30.24 "Hg
* Reported Jan 4 10:20 pm — Jan 19 10:20 pm, Canvey Island, Weather by CustomWeather, © 2017

Note: Actual official high and low records may vary slightly from our data, if they occured in-between our weather recording intervals... More about our weather records

Advertising

Canvey Island Weather History for the Previous 24 Hours

Scroll right to see more
 ConditionsComfort  
Time TempWeatherWind HumidityBarometerVisibility
10:20 pm
Thu, Jan 19
32 °FClear.5 mph87%30.60 "Hg10 mi
9:50 pm32 °FClear.6 mph87%30.60 "Hg10 mi
9:20 pm32 °FClear.7 mph87%30.60 "Hg10 mi
8:50 pm32 °FClear.7 mph87%30.60 "Hg10 mi
8:20 pm34 °FClear.6 mph87%30.60 "Hg10 mi
7:50 pm34 °FClear.2 mph81%30.60 "Hg10 mi
7:20 pm34 °FClear.3 mph81%30.60 "Hg10 mi
6:50 pm36 °FClear.5 mph81%30.60 "Hg10 mi
6:20 pm36 °FClear.6 mph81%30.60 "Hg10 mi
5:50 pm34 °FClear.6 mph87%30.60 "Hg10 mi
5:20 pm34 °FClear.5 mph81%30.60 "Hg10 mi
4:50 pm37 °FClear.5 mph81%30.60 "Hg10 mi
4:20 pm37 °FSunny.6 mph75%30.60 "Hg10 mi
3:50 pm39 °FSunny.6 mph75%30.60 "Hg10 mi
3:20 pm41 °FSunny.6 mph70%30.60 "Hg10 mi
2:50 pm41 °FSunny.8 mph70%30.60 "Hg10 mi
2:20 pm43 °FSunny.9 mph66%30.60 "Hg10 mi
1:50 pm43 °FPassing clouds.10 mph66%30.60 "HgN/A
1:20 pm43 °FPassing clouds.10 mph66%30.60 "HgN/A
12:50 pm43 °FSunny.9 mph71%30.63 "Hg10 mi
12:20 pm43 °FSunny.9 mph71%30.63 "Hg10 mi
11:50 am43 °FSunny.8 mph71%30.63 "Hg10 mi
11:20 am41 °FPassing clouds.6 mph76%30.63 "HgN/A
10:50 am41 °FPassing clouds.5 mph76%30.66 "HgN/A
10:20 am37 °FPassing clouds.5 mph81%30.66 "HgN/A
9:50 am37 °FPassing clouds.6 mph81%30.63 "HgN/A
9:20 am36 °FSunny.6 mph87%30.63 "Hg10 mi
8:50 am34 °FSunny.3 mph87%30.63 "Hg10 mi
8:20 am30 °FSunny.3 mph93%30.63 "Hg10 mi
7:50 am28 °FClear.3 mph93%30.63 "Hg10 mi
7:20 am25 °FClear.3 mph93%30.63 "Hg10 mi
6:50 am27 °FClear.3 mph86%30.63 "Hg10 mi
6:20 am25 °FClear.2 mph93%30.63 "Hg10 mi
5:50 am27 °FClear.No wind93%30.63 "Hg10 mi
5:20 am23 °FClear.3 mph100%30.63 "Hg10 mi
3:50 am28 °FClear.No wind93%30.63 "Hg10 mi
2:50 am28 °FClear.No wind93%30.66 "Hg10 mi
1:50 am28 °FClear.No wind93%30.66 "Hg10 mi
12:50 am28 °FClear.No wind93%30.66 "Hg10 mi
11:50 pm
Wed, Jan 18
32 °FClear.2 mph80%30.66 "Hg10 mi
11:20 pm32 °FClear.3 mph80%30.66 "Hg10 mi
Weather by CustomWeather, © 2017

See weather overviewHow to use our weather pages